Regional Weather Roundup
Issued by NWS Little Rock, AR

Home | Current Version | Previous Version | Graphics & Text | Print | Product List | Glossary On
Versions: 1 2 3 4 5 6 7 8 9 10 11 12 13 14 15 16 17 18 19 20 21 22 23 24 25 26 27 28 29 30 31 32 33 34 35 36 37 38 39 40 41 42 43 44 45 46 47 48 49 50
638
ASUS44 KLZK 071005
RWRLZK

WEATHER ROUNDUP FOR ARKANSAS
NATIONAL WEATHER SERVICE LITTLE ROCK AR
400 AM CST SUN FEB 07 2016

NOTE: "FAIR" INDICATES FEW OR NO CLOUDS BELOW 12,000 FEET WITH NO
SIGNIFICANT WEATHER AND/OR OBSTRUCTIONS TO VISIBILITY.

ARZ001-003-010-029-071100-
NORTHWEST ARKANSAS

CITY           SKY/WX    TMP DP  RH WIND       PRES   REMARKS
FAYETTEVILLE   CLEAR     29  27  92 S6        30.18F WCI  23
FORT SMITH     PTCLDY    32  25  75 CALM      30.24S
HARRISON       CLEAR     41  28  60 S3        30.18F
BENTONVILLE    CLEAR    N/A N/A N/A SW6       30.17F
ROGERS         CLEAR     37  30  75 SW9       30.16F
SILOAM SPGS    CLEAR     34  23  64 SW6       30.18F WCI  29
HIGHFILL       CLEAR     37  30  75 SW9       30.16F
$$

ARZ004-005-016-071100-
NORTH CENTRAL ARKANSAS

CITY           SKY/WX    TMP DP  RH WIND       PRES   REMARKS
BATESVILLE     CLOUDY    39  19  45 SW5       30.24S
FLIPPIN        CLEAR     34  18  51 CALM      30.18F
MTN HOME       CLEAR     36  20  52 S5        30.18F HAZE
$$

ARZ040-041-071100-
WEST CENTRAL ARKANSAS

CITY           SKY/WX    TMP DP  RH WIND       PRES   REMARKS
MENA           CLEAR     30  27  86 CALM      30.23F
MOUNT IDA      CLEAR     25  21  85 CALM      30.22F
$$

ARZ009-017-025-026-028-071100-
NORTHEAST ARKANSAS

CITY           SKY/WX    TMP DP  RH WIND       PRES   REMARKS
CORNING        FAIR      32  27  80 SW7       30.22F WCI  26
JONESBORO      CLOUDY    36  25  64 W5        30.23F
NEWPORT        PTCLDY    32  27  82 SW6       30.25F WCI  26
WALNUT RIDGE   CLEAR     30  21  69 SW7       30.23F WCI  23
BLYTHEVILLE    CLEAR     34  25  69 SW7       30.23F WCI  28
$$

ARZ022-023-033-042-044-071100-
CENTRAL ARKANSAS

CITY           SKY/WX    TMP DP  RH WIND       PRES   REMARKS
LITTLE ROCK    CLOUDY    34  26  72 SW5       30.25F WCI  30
N LITTLE ROCK    N/A     39  25  57 SW6       30.25F
JACKSONVILLE   CLOUDY    26  22  84 CALM      30.23F
SEARCY         CLEAR     28  25  86 CALM      30.25F
HOT SPRINGS    CLEAR     29  24  82 CALM      30.25F
RUSSELLVILLE   CLEAR     28  24  85 CALM      30.23F
CLINTON        FAIR      25  23  93 CALM      30.25S
$$

ARZ036-071100-
EAST ARKANSAS

CITY           SKY/WX    TMP DP  RH WIND       PRES   REMARKS
WEST MEMPHIS   CLEAR     30  28  92 S5        30.24F WCI  25
$$

ARZ050-053-066-070-073-071100-
SOUTHWEST ARKANSAS

CITY           SKY/WX    TMP DP  RH WIND       PRES   REMARKS
ARKADELPHIA    FAIR      27  27 100 CALM      30.28F
CAMDEN         CLEAR     27  25  93 CALM      30.29R
TEXARKANA      CLEAR     37  32  82 SW7       30.28S
EL DORADO      CLEAR     29  25  85 CALM      30.28F
DE QUEEN       CLEAR     27  25  92 CALM      30.26F
$$

ARZ056-057-069-071100-
SOUTHEAST ARKANSAS

CITY           SKY/WX    TMP DP  RH WIND       PRES   REMARKS
PINE BLUFF     CLEAR     29  25  85 SW3       30.26F
STUTTGART      PTCLDY    37  27  65 S6        30.26S
MONTICELLO     CLEAR     38  25  59 W6        30.26F

$$






USA.gov is the U.S. government's official web portal to all federal, state and local government web resources and services.